Date,TemperatureHighF,TemperatureAvgF,TemperatureLowF,DewpointHighF,DewpointAvgF,DewpointLowF,HumidityHigh,HumidityAvg,HumidityLow,PressureMaxIn,PressureMinIn,WindSpeedMaxMPH,WindSpeedAvgMPH,GustSpeedMaxMPH,PrecipitationSumIn
2013-10-1,84.7,69.3,-90.0,68.2,57.4,-99.9,92,77,50,29.50,29.39,8,2,13,0.00
2013-10-2,85.8,69.1,-90.0,71.3,56.7,-99.9,95,78,50,29.55,29.42,2,0,8,0.00
2013-10-3,85.2,70.9,-37.4,70.4,57.2,-99.9,90,78,58,29.43,29.29,9,3,16,0.06
2013-10-4,88.2,75.3,-16.4,70.1,60.2,-99.9,93,71,48,29.43,29.34,10,4,17,0.00
2013-10-5,76.6,61.4,-90.0,69.4,51.2,-99.9,91,83,77,29.43,29.35,8,2,18,0.14
2013-10-6,53.8,46.9,-90.0,48.0,39.9,-99.9,92,82,67,29.40,29.32,7,2,18,0.04
2013-10-7,72.9,54.6,-90.0,48.9,35.6,-99.9,92,65,38,29.62,29.39,3,1,14,0.00
2013-10-8,78.1,62.2,-22.9,52.2,43.6,-99.9,83,59,37,29.68,29.58,5,1,15,0.00
2013-10-9,74.7,58.0,-90.0,54.4,42.3,-99.9,93,64,42,29.68,29.58,2,0,8,0.00
2013-10-10,79.6,62.1,-90.0,58.5,46.4,-99.9,92,69,42,29.64,29.48,5,1,12,0.00
2013-10-11,80.5,64.9,-90.0,60.9,48.5,-99.9,92,67,41,29.50,29.35,10,3,20,0.00
2013-10-12,74.3,61.6,-90.0,60.2,41.3,-99.9,88,59,31,29.72,29.39,6,2,16,0.00
2013-10-13,72.4,53.5,-90.0,43.6,32.7,-99.9,80,56,27,29.91,29.73,2,0,9,0.00
2013-10-14,69.0,54.5,-90.0,53.1,37.9,-99.9,80,60,38,29.86,29.52,6,1,15,0.02
2013-10-15,66.4,57.7,-90.0,60.9,46.6,-99.9,94,76,57,29.52,29.36,9,2,18,0.26
2013-10-16,56.3,49.7,46.0,43.8,37.1,-99.9,83,70,61,29.55,29.47,4,1,15,0.00
2013-10-17,64.9,52.2,-27.7,47.9,38.0,-99.9,93,70,43,29.50,29.37,6,1,16,0.06
2013-10-18,55.0,45.0,-22.5,44.7,31.5,-99.9,92,74,48,29.57,29.41,5,1,19,0.06
2013-10-19,59.0,44.1,-44.4,40.2,27.7,-99.9,97,70,41,29.52,29.38,8,2,17,0.00
2013-10-20,72.5,55.1,-22.3,44.8,35.3,-99.9,98,57,32,29.42,29.28,12,4,22,0.00
2013-10-21,59.6,46.8,41.3,43.6,29.0,-99.9,76,61,47,29.57,29.38,7,1,21,0.00
2013-10-22,56.6,42.4,36.9,45.7,29.8,-99.9,89,77,64,29.54,29.30,11,3,21,0.03
2013-10-23,47.8,38.3,-28.4,36.7,27.9,-99.9,92,75,45,29.64,29.53,5,1,14,0.01
2013-10-24,46.3,37.8,-46.7,36.2,23.0,-99.9,89,65,45,29.91,29.63,8,2,18,0.00
2013-10-25,56.9,41.1,-50.7,31.8,19.3,-99.9,86,56,30,29.98,29.66,7,1,15,0.00
2013-10-26,60.7,47.5,-90.0,39.3,25.5,-99.9,67,50,31,29.66,29.52,8,3,21,0.00
2013-10-27,60.2,43.4,-90.0,32.8,24.7,-99.9,86,56,33,29.64,29.49,4,0,10,0.00
2013-10-28,68.0,49.0,-90.0,39.2,27.0,-99.9,80,52,28,29.73,29.54,3,0,12,0.00
2013-10-29,56.7,49.6,-90.0,53.7,36.5,-99.9,95,76,58,29.73,29.55,7,1,13,0.08
2013-10-30,67.3,60.9,54.6,65.2,55.8,-99.9,96,93,92,29.54,29.25,8,1,15,0.36
2013-10-31,64.5,55.2,45.5,62.5,51.0,-99.9,95,92,91,29.26,28.92,9,3,20,0.11